Content
SEND FEEDBACK

Daily
Averages
Monthly
Summary
Spain

BILBAO, SPAIN


Home > Europe > Spain
Elevation: 112 feet     Latitude: 43 18N     Longitude: 002 56W

WEATHER
 
SELECT A DAY
Number of Records: 223,923;   Date Range: 7/1/96 - 4/22/14
 
SHARE

PRINT THIS DATA

[ ← Previous Day ]
WEATHER ALMANAC - MARCH 6, 2013
[ Next Day → ]
[ °C ]   °F
Weather ElementAverageHighLow
Temperature62 °F73.4 °F (3:00 pm)51.8 °F (6:00 am)
Dewpoint45.5 °F50 °F (6:00 pm)42.8 °F (2:00 pm)
Humidity56.5 %76 % (6:00 am)33 % (3:00 pm)
Barometer29.34 in29.44 in (10:30 pm)29.30 in (7:30 am)
Wind Speed7.5 mph18.4 mph (10:00 pm)
Wind Gust23 mph (5:30 am)
Weather ElementAverage
Visibility6.2 mi
Wind DirectionSSW (195.7 °)

Weather ElementTotal
Precipitation---
Heating Degree Days2.4 (Base 65)
Growing Degree Days12.6 (Base 50)
Averaged from 37 records on March 6, 2013
WEATHER CONDITIONS BREAKOUT
WIND DIRECTION BREAKOUT
WEATHER BY HOUR - MARCH 6, 2013
[ °C ]   °F
Local TimeTemperatureDewpointHumidityBarometerVisibilityWind DirectionWind SpeedGust SpeedPrecipitationEventsConditions
5:30 AM53.6 °F44.6 °F72 %29.33 inSE (140°)10.4 mph23.0 mphClear
6:00 AM51.8 °F44.6 °F76 %29.33 inESE (110°)11.5 mphClear
6:30 AM53.6 °F44.6 °F72 %29.33 inSSE (150°)11.5 mphClear
7:00 AM53.6 °F44.6 °F72 %29.33 inESE (120°)8.1 mphClear
7:30 AM53.6 °F44.6 °F72 %29.30 inSE (140°)9.2 mphClear
8:00 AM53.6 °F44.6 °F72 %29.30 inSSE (160°)5.8 mphClear
8:30 AM53.6 °F44.6 °F72 %29.33 inSE (130°)9.2 mphClear
9:00 AM55.4 °F46.4 °F72 %29.33 inSE (140°)3.5 mphClear
9:30 AM59.0 °F46.4 °F63 %29.33 inSE (130°)3.5 mphClear
10:00 AM60.8 °F46.4 °F59 %29.33 inSE (140°)5.8 mphClear
10:30 AM62.6 °F46.4 °F55 %29.33 inSouth (180°)3.5 mphClear
11:00 AM64.4 °F46.4 °F52 %29.33 inVariable4.6 mphClear
11:30 AM64.4 °F44.6 °F49 %29.33 inWSW (250°)6.9 mphClear
12:00 PM64.4 °F44.6 °F49 %29.33 inWest (260°)6.9 mphClear
12:30 PM66.2 °F44.6 °F46 %29.33 in6.2 miWest (260°)8.1 mphPartly Cloudy
1:00 PM68.0 °F44.6 °F43 %29.33 in6.2 miWSW (240°)10.4 mphPartly Cloudy
1:30 PM68.0 °F44.6 °F43 %29.33 in6.2 miWSW (250°)11.5 mphPartly Cloudy
2:00 PM69.8 °F42.8 °F38 %29.30 in6.2 miSW (230°)12.7 mphPartly Cloudy
2:30 PM69.8 °F42.8 °F38 %29.30 in6.2 miWSW (240°)8.1 mphPartly Cloudy
3:00 PM73.4 °F42.8 °F33 %29.30 in6.2 miWest (260°)9.2 mphPartly Cloudy
3:30 PM71.6 °F42.8 °F35 %29.30 in6.2 miSW (230°)8.1 mphPartly Cloudy
4:00 PM69.8 °F44.6 °F40 %29.30 in6.2 miWest (270°)9.2 mphPartly Cloudy
4:30 PM68.0 °F46.4 °F46 %29.30 in6.2 miWNW (290°)5.8 mphPartly Cloudy
5:00 PM68.0 °F48.2 °F49 %29.30 in6.2 miWNW (290°)4.6 mphPartly Cloudy
5:30 PM68.0 °F46.4 °F46 %29.30 in6.2 miWNW (300°)3.5 mphPartly Cloudy
6:00 PM64.4 °F50.0 °F59 %29.30 in6.2 miNW (310°)4.6 mphPartly Cloudy
6:30 PM62.6 °F46.4 °F55 %29.33 in6.2 miWNW (300°)4.6 mphPartly Cloudy
7:00 PM60.8 °F46.4 °F59 %29.33 in6.2 miVariable2.3 mphPartly Cloudy
7:30 PM59.0 °F48.2 °F67 %29.36 in6.2 miVariable2.3 mphPartly Cloudy
8:00 PM60.8 °F48.2 °F63 %29.36 in6.2 miCalmPartly Cloudy
8:30 PM64.4 °F44.6 °F49 %29.39 in6.2 miVariable2.3 mphPartly Cloudy
9:00 PM64.4 °F44.6 °F49 %29.39 in6.2 miSW (230°)6.9 mphPartly Cloudy
9:30 PM64.4 °F46.4 °F52 %29.42 in6.2 miWSW (240°)12.7 mphScattered Clouds
10:00 PM59.0 °F46.4 °F63 %29.42 in6.2 miNW (320°)18.4 mphScattered Clouds
10:30 PM57.2 °F46.4 °F67 %29.44 in6.2 miNW (310°)15.0 mphScattered Clouds
11:00 PM55.4 °F46.4 °F72 %29.44 in6.2 miNW (310°)10.4 mphScattered Clouds
11:30 PM55.4 °F46.4 °F72 %29.44 in6.2 miNW (310°)4.6 mphScattered Clouds
Hourly data recorded from LEBB, located 1.44 miles away from Bilbao, Spain







STORIES FROM OUR PARTNERS